Wind_Speed
5 4 4 7 7 8 8 8 10 14 15 16 18 18 19 20 20 21 21 21 23 25 27 29 31 33 34 35 36 37 38 38 37 37 37 37 37 37 37 36 33 31 28 27
1 4 7 6 6 7 7 6 10 13 13 14 15 15 16 16 17 18 19 20 22 24 25 27 28 29 31 33 34 35 36 37 37 37 38 38 38 38 37 36 34 31 28 26
4 8 8 8 7 5 6 5 9 11 10 10 11 11 13 13 14 16 17 19 21 23 25 27 29 31 32 33 34 36 37 38 39 40 40 40 39 39 38 37 35 33 30 27
6 8 8 7 8 6 6 9 8 8 9 10 10 13 13 15 17 18 20 21 23 25 27 28 31 32 34 35 36 38 39 40 40 41 42 42 41 40 39 38 37 35 33 31
4 4 4 5 6 5 8 7 7 8 10 12 13 14 16 17 19 20 21 23 25 27 29 31 33 34 35 35 37 38 39 41 42 43 43 43 43 42 41 40 38 38 36 35
1 0 1 1 2 3 4 6 8 10 12 13 17 16 20 19 20 22 24 26 28 29 31 32 33 34 35 36 38 39 40 42 44 45 45 45 44 43 42 41 40 39 39 38
3 1 1 2 3 4 5 6 9 10 11 14 21 20 20 21 22 25 27 28 30 31 32 32 33 34 36 37 39 41 42 43 44 44 44 43 42 41 40 40 41 41 41 41
4 5 4 5 5 7 7 7 9 10 12 16 21 19 19 22 25 27 28 29 30 31 32 33 35 36 38 39 40 41 42 42 41 40 39 39 39 39 39 40 41 41 43 44
4 6 5 6 6 8 9 10 11 11 13 13 18 19 20 23 26 27 28 29 30 31 33 35 37 39 40 41 42 42 41 39 37 37 36 36 37 39 40 42 43 44 44 46
5 6 7 7 8 8 9 9 9 9 11 12 16 22 23 24 25 26 27 29 31 34 36 38 39 40 41 43 43 42 39 37 36 36 36 37 39 41 43 45 47 48 49 50
6 7 8 8 7 8 8 8 9 10 12 14 15 22 23 24 25 27 29 31 33 35 37 38 39 41 42 43 42 40 38 37 36 37 38 40 43 45 48 49 51 52 53 55
7 8 8 8 8 8 8 9 10 12 15 17 19 22 22 24 26 28 30 32 34 36 38 39 40 41 42 42 41 39 38 38 38 39 41 44 47 49 51 52 54 56 57 58
7 9 10 10 11 10 11 11 12 14 16 18 19 23 23 25 27 29 31 34 36 37 38 39 41 42 43 42 40 39 39 39 40 42 44 47 49 51 53 55 57 59 59 59
8 9 8 8 11 13 14 14 15 16 18 19 21 23 25 27 30 32 34 36 37 39 40 40 41 43 43 42 40 40 39 40 42 44 47 49 51 53 55 57 58 59 59 59
9 10 11 12 14 15 17 17 17 17 18 20 22 24 26 29 32 34 35 37 39 40 41 42 42 43 43 41 40 40 40 41 43 46 49 51 53 54 56 58 59 59 58 57
11 12 13 15 15 17 18 18 18 18 19 20 23 25 27 30 33 36 37 39 40 41 42 42 42 43 43 42 41 40 41 42 45 48 51 52 54 55 57 57 57 55 53 52
13 14 15 17 18 18 18 18 18 18 20 22 24 27 30 32 35 38 39 41 42 43 43 43 43 44 43 42 42 42 42 44 47 50 52 54 54 56 56 56 54 50 47 46
14 16 18 19 19 19 18 19 18 18 21 24 26 28 31 33 36 38 40 42 43 44 44 45 45 45 44 44 43 43 44 46 49 52 53 54 54 56 55 54 50 46 42 39
16 17 18 19 20 21 19 17 18 19 21 24 27 29 31 34 38 40 42 44 45 46 47 47 47 46 46 45 44 44 45 47 50 52 53 53 54 55 54 52 47 42 37 33
16 17 19 20 20 20 20 19 20 22 23 25 28 30 33 35 38 41 44 45 46 48 48 48 48 48 47 46 45 45 46 47 49 52 52 52 52 53 52 49 44 39 34 29
17 17 18 20 20 21 20 21 22 24 26 28 30 32 35 38 40 42 44 45 47 48 48 48 48 48 47 46 45 45 46 47 49 51 51 51 51 51 50 46 41 36 31 26
18 19 19 19 20 22 21 21 23 25 27 29 31 33 36 39 42 44 46 47 48 48 48 48 48 47 47 47 45 45 46 46 48 50 50 49 50 49 47 43 39 34 29 23
18 19 20 19 20 21 21 22 23 25 27 29 31 34 37 40 43 45 47 48 48 49 48 48 47 46 47 47 46 45 45 46 47 48 48 48 48 47 45 41 37 32 27 21
21 19 19 20 20 21 22 23 24 26 28 30 33 36 39 41 44 46 48 48 48 48 48 47 46 46 46 46 45 45 44 44 45 46 47 48 46 44 43 39 35 30 25 19
22 19 19 19 20 21 23 24 25 27 29 32 35 38 40 42 44 46 48 48 48 48 47 46 46 45 45 45 45 44 43 43 44 45 46 46 45 43 40 37 34 29 24 19
22 20 19 19 20 21 23 25 26 28 31 34 37 39 41 43 44 45 47 48 47 47 46 45 45 45 45 45 44 43 42 42 42 43 44 44 44 42 39 36 32 28 23 19
Wind_Direction
260 250 232 239 245 244 261 273 280 288 289 287 285 284 284 283 284 285 286 287 288 288 290 292 293 295 295 295 296 297 297 298 297 296 295 295 296 297 299 303 304 302 296 285
289 255 250 250 253 263 279 294 296 302 299 295 292 290 290 290 291 293 294 295 295 296 296 297 299 300 300 299 299 300 299 297 295 295 294 294 294 295 297 299 300 301 297 289
238 250 253 249 255 265 283 280 290 306 310 305 305 304 303 307 307 306 306 305 305 303 301 300 301 303 303 302 301 300 299 297 296 295 294 294 294 294 294 294 293 292 291 286
275 265 253 247 249 247 263 273 286 305 320 316 316 309 311 312 311 309 307 306 304 302 301 301 302 302 302 302 300 299 298 297 296 295 294 293 292 291 290 288 287 285 282 278
283 264 247 241 242 241 247 268 290 304 310 311 314 308 308 308 309 308 306 304 303 302 301 301 302 302 302 301 300 299 298 297 296 295 294 292 291 290 288 286 284 281 277 273
334 176 160 198 240 262 276 288 303 314 315 302 305 303 299 304 304 304 303 303 303 303 303 303 303 303 303 302 301 300 298 296 295 293 292 291 289 288 286 285 282 279 275 271
357 355 350 320 293 290 293 306 307 303 298 285 296 299 300 303 304 304 304 304 304 304 304 305 304 304 304 304 303 301 299 297 295 293 292 290 288 286 284 283 282 279 275 270
326 310 314 304 290 287 287 286 282 281 287 291 300 307 309 306 306 307 307 307 307 308 308 309 308 308 307 307 306 304 302 300 297 294 292 290 288 287 286 285 283 280 276 272
317 309 307 299 293 287 286 284 287 296 302 306 305 315 312 310 310 311 311 312 313 313 313 313 313 312 312 312 311 308 306 303 299 296 293 291 289 288 286 285 284 281 278 273
335 327 318 307 301 294 293 297 303 310 310 313 312 316 322 320 320 319 318 318 318 317 317 316 316 316 316 316 314 312 310 306 302 300 296 293 290 289 288 286 283 281 278 275
349 346 336 328 324 321 320 319 320 322 325 327 322 317 329 327 327 325 324 323 321 320 320 319 319 319 319 318 317 315 312 308 305 302 300 298 296 294 292 289 286 283 279 275
356 355 345 342 343 343 339 335 335 334 332 332 332 328 335 333 332 330 329 327 325 324 323 322 322 322 322 321 319 316 313 311 308 306 304 303 302 300 297 293 290 287 282 278
345 352 356 347 345 345 340 338 336 334 334 336 337 331 337 336 335 334 333 330 328 327 326 325 325 326 326 324 321 317 314 312 311 310 309 308 307 305 302 299 295 291 285 279
326 337 347 332 328 333 333 333 333 333 333 335 336 335 337 338 337 337 336 333 331 331 330 328 328 329 327 325 322 318 315 314 314 314 314 313 312 309 307 303 298 293 287 280
317 326 331 333 332 329 327 327 327 327 329 333 334 336 337 337 338 338 337 335 334 334 333 331 330 330 329 326 323 320 318 317 318 318 318 317 315 313 311 308 302 296 290 283
313 322 328 329 327 322 320 319 321 323 327 332 334 335 336 337 337 338 338 337 337 335 334 332 332 332 330 328 325 322 321 322 322 323 323 321 319 317 316 313 308 302 295 287
315 321 325 324 322 319 314 318 321 323 326 331 332 333 335 336 336 337 338 338 337 336 335 334 334 333 332 330 327 325 324 325 326 326 326 325 324 322 320 318 314 309 301 292
316 320 321 321 320 320 317 317 318 322 326 329 330 331 333 334 335 337 337 337 337 336 336 335 335 334 334 332 330 328 328 328 329 330 329 329 328 327 326 323 321 316 309 299
315 317 317 319 320 318 316 316 318 323 326 327 328 331 333 335 336 336 337 337 337 337 337 336 336 336 336 334 331 330 330 331 332 333 333 332 332 332 331 330 327 323 317 308
310 313 315 318 318 317 318 320 321 322 326 329 331 333 335 336 337 336 336 337 337 337 337 336 336 335 336 335 333 332 332 333 334 335 336 336 335 336 336 335 333 330 325 316
310 312 314 315 317 316 318 320 323 327 330 332 334 335 336 336 336 336 335 335 336 336 336 336 336 335 335 335 334 333 334 335 336 337 338 338 339 339 340 340 339 336 333 327
308 311 313 314 314 314 320 322 326 328 331 333 334 335 336 336 335 335 335 335 336 336 336 336 335 335 335 336 335 335 336 337 338 340 341 341 342 343 344 345 344 343 341 338
305 306 309 312 313 316 320 323 327 330 332 333 334 335 335 335 334 334 335 335 336 336 336 336 335 335 336 337 337 337 337 338 340 342 344 345 345 346 348 348 348 348 346 344
305 307 308 310 313 317 321 324 328 330 331 332 332 333 334 334 334 335 336 337 336 336 336 336 336 336 337 338 338 338 338 339 341 344 346 348 348 349 350 351 352 352 353 350
302 306 308 309 312 317 321 325 327 329 330 330 331 332 334 335 335 336 338 339 339 338 338 338 338 338 338 339 339 339 339 341 343 345 348 350 351 352 352 354 355 356 356 356
300 304 305 308 312 317 321 324 326 327 328 329 330 332 334 336 337 339 340 342 342 342 341 340 339 339 339 340 340 340 340 342 344 347 349 351 353 355 355 356 357 359 360 360
Height
5870 5872 5874 5873 5873 5874 5874 5874 5874 5871 5870 5869 5867 5866 5864 5863 5862 5862 5861 5860 5859 5857 5855 5853 5850 5847 5844 5841 5837 5834 5830 5827 5824 5821 5818 5816 5812 5809 5805 5801 5797 5792 5788 5787
5870 5871 5870 5870 5870 5870 5871 5872 5870 5868 5866 5865 5863 5862 5860 5859 5858 5857 5856 5855 5853 5851 5849 5846 5843 5840 5837 5833 5830 5826 5822 5819 5816 5812 5810 5807 5804 5800 5797 5794 5790 5787 5784 5782
5869 5870 5868 5868 5869 5869 5870 5870 5869 5866 5864 5862 5860 5859 5857 5856 5855 5853 5852 5850 5848 5846 5843 5840 5837 5833 5830 5826 5822 5818 5815 5811 5807 5803 5800 5797 5794 5791 5788 5785 5783 5780 5779 5777
5867 5866 5866 5866 5867 5867 5869 5867 5866 5864 5862 5860 5860 5858 5856 5853 5852 5850 5848 5846 5843 5841 5838 5834 5831 5827 5823 5819 5815 5811 5806 5802 5798 5794 5790 5787 5784 5781 5778 5776 5774 5772 5771 5770
5865 5864 5864 5864 5865 5865 5865 5864 5864 5862 5861 5859 5857 5856 5854 5850 5849 5847 5844 5841 5839 5836 5832 5829 5825 5821 5817 5812 5808 5803 5798 5793 5788 5784 5780 5776 5773 5770 5768 5766 5764 5762 5761 5761
5865 5864 5864 5864 5864 5864 5864 5863 5862 5861 5860 5859 5856 5854 5851 5848 5846 5843 5840 5837 5834 5830 5826 5822 5818 5814 5809 5805 5800 5795 5790 5784 5778 5774 5769 5765 5762 5759 5756 5754 5753 5752 5750 5750
5866 5865 5864 5864 5864 5863 5863 5863 5863 5861 5859 5857 5853 5850 5848 5844 5842 5838 5835 5831 5828 5824 5820 5815 5811 5806 5802 5797 5791 5785 5780 5774 5768 5763 5758 5754 5750 5747 5745 5743 5741 5740 5739 5738
5866 5866 5864 5863 5863 5862 5861 5861 5862 5860 5859 5856 5849 5847 5844 5840 5837 5833 5829 5825 5821 5817 5812 5807 5802 5797 5792 5787 5781 5775 5769 5763 5757 5752 5747 5743 5740 5736 5734 5731 5729 5727 5726 5725
5866 5865 5863 5861 5860 5860 5859 5858 5857 5856 5854 5851 5848 5844 5840 5835 5831 5827 5823 5818 5814 5809 5804 5799 5793 5788 5782 5776 5770 5763 5756 5751 5746 5741 5737 5733 5729 5726 5722 5719 5717 5714 5712 5711
5864 5863 5861 5860 5858 5857 5856 5854 5853 5852 5850 5849 5846 5840 5836 5830 5826 5822 5817 5812 5807 5802 5796 5791 5784 5778 5771 5765 5758 5751 5745 5740 5735 5730 5726 5723 5719 5714 5710 5706 5703 5700 5697 5695
5863 5862 5860 5858 5856 5854 5854 5852 5850 5849 5847 5844 5842 5839 5832 5826 5821 5817 5812 5807 5801 5796 5789 5783 5776 5769 5762 5755 5747 5741 5735 5730 5725 5720 5715 5710 5706 5700 5695 5690 5686 5682 5678 5676
5862 5861 5859 5856 5854 5852 5851 5850 5848 5847 5843 5840 5837 5836 5828 5822 5817 5812 5807 5801 5795 5789 5782 5775 5768 5761 5753 5745 5738 5731 5725 5720 5714 5709 5703 5697 5691 5685 5678 5672 5666 5661 5656 5653
5861 5860 5858 5856 5855 5852 5850 5848 5846 5844 5840 5837 5834 5832 5823 5818 5813 5808 5802 5796 5789 5782 5775 5767 5760 5752 5744 5736 5728 5721 5715 5709 5703 5697 5690 5683 5676 5668 5660 5652 5644 5637 5632 5628
5859 5858 5858 5857 5853 5850 5847 5845 5843 5840 5837 5833 5829 5825 5819 5813 5808 5802 5796 5789 5782 5775 5767 5759 5751 5743 5735 5727 5719 5712 5705 5699 5692 5684 5677 5669 5660 5650 5641 5631 5622 5614 5607 5602
5857 5856 5854 5852 5849 5847 5845 5842 5840 5837 5833 5829 5825 5820 5814 5808 5802 5797 5790 5783 5776 5768 5760 5752 5744 5735 5727 5718 5710 5703 5695 5688 5680 5672 5663 5654 5644 5633 5622 5611 5600 5590 5582 5576
5855 5853 5851 5849 5847 5844 5842 5839 5836 5833 5829 5825 5820 5816 5810 5804 5798 5791 5785 5777 5770 5762 5754 5745 5736 5728 5719 5710 5702 5694 5686 5678 5669 5660 5650 5639 5628 5617 5604 5592 5579 5567 5558 5551
5852 5850 5849 5847 5844 5842 5839 5836 5833 5829 5825 5821 5816 5812 5805 5799 5793 5786 5779 5771 5763 5755 5747 5738 5729 5720 5711 5702 5693 5684 5675 5667 5657 5647 5636 5625 5613 5601 5587 5573 5559 5547 5537 5530
5849 5847 5845 5843 5841 5838 5837 5832 5829 5825 5821 5816 5811 5806 5801 5795 5788 5781 5773 5765 5758 5749 5740 5731 5722 5713 5703 5693 5683 5674 5665 5656 5646 5636 5624 5612 5599 5586 5572 5557 5543 5531 5521 5513
5845 5844 5842 5840 5837 5834 5831 5828 5824 5821 5818 5813 5808 5802 5796 5790 5782 5774 5767 5759 5750 5741 5732 5723 5713 5704 5695 5685 5675 5666 5656 5646 5636 5625 5613 5600 5587 5573 5559 5544 5531 5519 5509 5501
5843 5841 5839 5835 5833 5830 5827 5824 5820 5817 5813 5808 5803 5797 5791 5784 5778 5771 5761 5753 5744 5735 5725 5716 5705 5696 5687 5677 5667 5658 5648 5638 5627 5616 5604 5591 5577 5563 5549 5534 5522 5510 5501 5492
5839 5837 5835 5832 5828 5825 5823 5819 5816 5812 5809 5803 5797 5791 5785 5778 5772 5765 5756 5748 5739 5729 5719 5709 5699 5688 5679 5670 5660 5650 5641 5630 5619 5608 5596 5583 5569 5555 5541 5528 5516 5505 5495 5487
5835 5833 5830 5828 5825 5823 5818 5814 5811 5808 5802 5797 5791 5786 5779 5772 5765 5758 5750 5741 5732 5723 5713 5703 5693 5682 5672 5663 5653 5644 5634 5623 5612 5601 5589 5576 5563 5550 5536 5523 5512 5501 5492 5485
5831 5829 5826 5824 5822 5817 5813 5810 5806 5802 5797 5792 5787 5781 5774 5768 5761 5753 5744 5735 5726 5716 5707 5697 5687 5676 5666 5656 5646 5637 5628 5617 5606 5595 5583 5571 5558 5545 5533 5521 5510 5500 5492 5485
5825 5823 5821 5818 5815 5812 5809 5805 5801 5797 5792 5787 5782 5776 5769 5763 5755 5747 5738 5729 5720 5710 5700 5690 5680 5671 5661 5650 5640 5631 5622 5612 5601 5590 5579 5567 5555 5543 5531 5520 5509 5500 5492 5486
5820 5818 5816 5813 5811 5808 5804 5800 5796 5792 5787 5782 5776 5770 5764 5757 5749 5741 5732 5723 5714 5704 5694 5684 5674 5665 5655 5645 5635 5626 5616 5607 5597 5587 5576 5564 5553 5541 5530 5520 5510 5501 5494 5488
5813 5812 5811 5809 5806 5803 5799 5795 5791 5787 5782 5777 5771 5764 5758 5751 5743 5735 5726 5717 5708 5698 5688 5679 5669 5659 5650 5640 5631 5622 5612 5603 5593 5584 5573 5562 5551 5540 5530 5520 5511 5503 5496 5490